Flag for Colombia Weather past 2 weeks in San Juan de Pasto, Colombia

Now
64 °F

Broken clouds.


Feels Like: 64 °F
Forecast: 49 / 62 °F
Wind: 25 mph from South

Location: Latacunga Airport

Current Time: Dec 28, 2014 at 2:24:22 PM

Latest Report: Dec 28, 2014 at 2:00 PM


Visibility: N/A

Pressure: 30.33 "Hg

Humidity: 60%

Dew point: 50 °F

Location of San Juan de PastoLocation

Historic Weather in San Juan de Pasto — Graph

°F

San Juan de Pasto temperature yesterday

Maximum temperature yesterday: 63 °F (at 2:00 PM)
Minimum temperature yesterday: 52 °F (at 1:00 AM)
Average temperature yesterday: 55 °F

Past Weeks' High & Low Weather Summary

 TemperatureHumidityPressure
High75 °F (Dec 15, 2:00 PM)100% (Dec 14, 3:00 AM)30.48 "Hg (Dec 14, 3:00 AM)
Low36 °F (Dec 15, 5:00 AM)24% (Dec 15, 2:00 PM)30.24 "Hg (Dec 14, 4:00 PM)
Average56 °F83%30.38 "Hg
* Reported Dec 13 1:00 PM — Dec 28 1:00 PM, San Juan de Pasto, Weather by CustomWeather, © 2014

Note: Actual official high and low records may vary slightly from our data, if they occured in-between our weather recording intervals... More about our weather records

Advertising

San Juan de Pasto weather history for previous 24 hours

 ConditionsComfort  
Time TempWeatherWind HumidityBarometerVisibility
1:00 PM
Dec 28
63 °FBroken clouds.23 mph68%30.36 "HgN/A
12:00 PM63 °FScattered clouds.21 mph68%30.39 "HgN/A
11:00 AM61 °FScattered clouds.16 mph72%30.39 "HgN/A
10:00 AM59 °FScattered clouds.12 mph77%30.42 "HgN/A
9:00 AM55 °FBroken clouds.10 mph88%30.42 "HgN/A
8:00 AM54 °FBroken clouds.9 mph94%30.45 "HgN/A
7:00 AM52 °FBroken clouds.5 mph94%30.42 "HgN/A
6:00 AM50 °FPartly cloudy.12 mph100%30.39 "HgN/A
5:00 AM50 °FPartly cloudy.8 mph100%30.36 "HgN/A
4:00 AM50 °FPassing clouds.9 mph100%30.36 "HgN/A
3:00 AM50 °FPassing clouds.7 mph100%30.36 "HgN/A
2:00 AM50 °FPassing clouds.6 mph100%30.39 "HgN/A
1:00 AM50 °FPassing clouds.5 mph100%30.42 "HgN/A
12:00 AM52 °FPassing clouds.6 mph100%30.45 "HgN/A
11:00 PM
Dec 27
52 °FPartly cloudy.10 mph100%30.45 "HgN/A
10:00 PM52 °FPartly cloudy.8 mph94%30.45 "HgN/A
9:00 PM54 °FPartly cloudy.12 mph94%30.42 "HgN/A
8:00 PM54 °FPartly cloudy.10 mph88%30.39 "HgN/A
7:00 PM55 °FPassing clouds.12 mph88%30.39 "HgN/A
6:00 PM57 °FPartly sunny.16 mph82%30.33 "HgN/A
5:00 PM57 °FPartly sunny.18 mph82%30.33 "HgN/A
4:00 PM59 °FBroken clouds.20 mph77%30.33 "HgN/A
3:00 PM63 °FPartly sunny.12 mph68%30.33 "HgN/A
2:00 PM63 °FBroken clouds.20 mph68%30.36 "HgN/A
Weather by CustomWeather, © 2014

See weather overviewHow to use our weather pages